Regional Weather Roundup
Issued by NWS

Home | Current Version | Previous Version | Text Only | Print | Product List | Glossary Off
Versions: 1 2 3 4 5 6 7 8 9 10 11 12 13 14 15 16 17 18 19 20 21 22 23 24 25 26 27 28 29 30 31 32 33 34 35 36 37 38 39 40 41 42 43 44 45 46 47 48 49 50

000
ASUS43 KOAX 111602
RWRNE

WEATHER ROUNDUP FOR NEBRASKA
NATIONAL WEATHER SERVICE OMAHA NE
1000 AM CST MON DEC 11 2017

NOTES: SATELLITE DATA IS BEING USED TO AUGMENT CLOUD COVER ABOVE
       12000 FEET.
       "FAIR" INDICATES FEW OR NO CLOUDS BELOW 12,000 FEET WITH NO
       SIGNIFICANT WEATHER AND/OR OBSTRUCTIONS TO VISIBILITY.


NEZ001>004-019>022-054>056-111700-
NEBRASKA PANHANDLE

CITY           SKY/WX    TMP DP  RH WIND       PRES   REMARKS
SCOTTSBLUFF    CLOUDY    36  11  35 NW13      30.34R WCI  27
ALLIANCE       SUNNY     44  15  31 NW30G40   30.23F
CHADRON        MOSUNNY   43  16  33 W26G36    30.28R
GORDON         FAIR      43  19  37 NW20G30   30.22R
KIMBALL        CLOUDY    41   7  24 W15       30.34R
SIDNEY         CLOUDY    46  12  25 NW20G30   30.28S
$$

NEZ057>060-069>072-079>082-111700-
SOUTHWEST NEBRASKA

CITY           SKY/WX    TMP DP  RH WIND       PRES   REMARKS
NORTH PLATTE   MOSUNNY   42  20  41 NW12      30.18S
IMPERIAL       SUNNY     48  12  23 W18G26    30.24R
LEXINGTON      MOSUNNY   46  17  31 NW23      30.15R
MCCOOK         CLOUDY    45  14  28 W14       30.22R
OGALLALA       SUNNY     48  16  27 NW22G30   30.22R
$$

NEZ005>010-023>029-035>040-094-111700-
NORTH CENTRAL NEBRASKA

CITY           SKY/WX    TMP DP  RH WIND       PRES   REMARKS
VALENTINE      CLOUDY    43  24  47 NW23G37   30.17R
AINSWORTH      CLOUDY    41  27  57 N31G38    30.15R
BROKEN BOW     CLOUDY    48  20  32 N32G41    30.13R
O`NEILL        CLOUDY    43  29  56 NW30G43   30.08R
ORD            CLOUDY    45  25  45 NW37G49   30.09R
THEDFORD       MOSUNNY   47  20  35 NW26G40   30.17R
$$

NEZ041-046>049-061>064-073>077-083>087-111700-
SOUTH CENTRAL NEBRASKA

CITY           SKY/WX    TMP DP  RH WIND       PRES   REMARKS
GRAND ISLAND   SUNNY     49  21  33 NW37G45   30.10R
AURORA         SUNNY     49  21  34 NW37G45   30.09R
HASTINGS       MOSUNNY   51  16  24 N31G39    30.10R
HEBRON         CLOUDY    54  16  22 NW17G31   30.07R
HOLDREGE       PTSUNNY   49  21  33 NW18G26   30.14R
KEARNEY        CLOUDY    47  18  31 NW14      30.12R
YORK           SUNNY     48  25  40 NW31G48   30.05R
$$

NEZ011>018-030>034-042>045-111700-
NORTHEAST NEBRASKA

CITY           SKY/WX    TMP DP  RH WIND       PRES   REMARKS
NORFOLK        PTSUNNY   45  29  53 NW36G45   29.98R
ALBION         SUNNY     47  28  48 NW36G43   30.03S
BLAIR          SUNNY     47  30  51 NW26G40   29.95R
COLUMBUS       SUNNY     47  28  47 NW31G40   30.02R
FREMONT        MOSUNNY   47  29  48 NW31G43   29.99R
TEKAMAH        CLOUDY    47  29  49 NW32G41   29.95R
WAYNE          CLOUDY    45  27  50 NW33G46   29.97R
$$

NEZ050>053-065>068-078-088>093-111700-
SOUTHEAST NEBRASKA

CITY           SKY/WX    TMP DP  RH WIND       PRES   REMARKS
LINCOLN        SUNNY     50  25  37 NW26G43   30.03R
OMAHA EPPLEY   MOSUNNY   48  27  44 NW33G45   29.94R
BEATRICE       MOSUNNY   52  20  28 NW24      30.03S
FALLS CITY     MOSUNNY   49  19  30 NW18      29.98R
NEBRASKA CITY  SUNNY     50  25  36 NW23G35   29.97S
PLATTSMOUTH    MOSUNNY   48  27  44 NW23G37   29.96R HAZE
$$

NEZ044-045-051>053-067-111700-
OMAHA AREA

CITY           SKY/WX    TMP DP  RH WIND       PRES   REMARKS
OMAHA EPPLEY   MOSUNNY   48  27  44 NW33G45   29.94R
BLAIR          SUNNY     47  30  51 NW26G40   29.95R
FREMONT        MOSUNNY   47  29  48 NW31G43   29.99R
MILLARD        SUNNY     49  30  47 NW18G36   29.97R
OFFUTT AFB     SUNNY     48  26  42 NW28G37   29.95S
PLATTSMOUTH    MOSUNNY   48  27  44 NW23G37   29.96R HAZE
WAHOO          FAIR      49  26  41 NW24G32   29.99R
$$




USA.gov is the U.S. government's official web portal to all federal, state and local government web resources and services.